| time (UTC) | temp F | wind direction | speed MPH | gust MPH | rain 1hr in | rain 24hr in | rain mn in | humidity % | barometer mb |
| 20260508074527 | 48 | 232 | 2.0 | 10.0 | 0.00 | 0.01 | 0.01 | 82 | 1022.6 |
| 20260508073024 | 49 | 217 | 2.0 | 11.0 | 0.00 | 0.01 | 0.01 | 81 | 1022.4 |
| 20260508071525 | 49 | 267 | 3.0 | 13.0 | 0.00 | 0.01 | 0.01 | 80 | 1022.0 |
| 20260508070023 | 50 | 265 | 6.0 | 15.0 | 0.00 | 0.01 | 0.01 | 79 | 1021.8 |
| 20260508064546 | 51 | 229 | 4.0 | 12.0 | 0.00 | 0.01 | 0.01 | 78 | 1021.6 |
| 20260508063027 | 51 | 261 | 7.0 | 18.0 | 0.00 | 0.01 | 0.01 | 76 | 1021.5 |
| 20260508061521 | 52 | 236 | 4.0 | 12.0 | 0.00 | 0.01 | 0.01 | 75 | 1021.2 |
| 20260508060024 | 52 | 228 | 5.0 | 15.0 | 0.00 | 0.01 | 0.01 | 75 | 1021.1 |
| 20260508054534 | 52 | 237 | 5.0 | 14.0 | 0.00 | 0.01 | 0.01 | 74 | 1021.0 |
| 20260508053019 | 53 | 265 | 7.0 | 18.0 | 0.00 | 0.01 | 0.01 | 73 | 1020.9 |
| 20260508050025 | 54 | 267 | 6.0 | 15.0 | 0.00 | 0.01 | 0.01 | 70 | 1020.7 |
| 20260508044513 | 53 | 219 | 6.0 | 16.0 | 0.00 | 0.01 | 0.01 | 73 | 1020.7 |
| 20260508043013 | 53 | 238 | 6.0 | 14.0 | 0.00 | 0.01 | 0.01 | 75 | 1020.4 |
| 20260508041508 | 52 | 239 | 7.0 | 21.0 | 0.00 | 0.01 | 0.01 | 76 | 1020.2 |
| 20260508040005 | 52 | 228 | 6.0 | 16.0 | 0.00 | 0.01 | 0.01 | 77 | 1020.0 |
| 20260508034511 | 52 | 238 | 8.0 | 16.0 | 0.00 | 0.01 | 0.01 | 77 | 1020.2 |
| 20260508033003 | 51 | 254 | 7.0 | 15.0 | 0.00 | 0.01 | 0.01 | 78 | 1020.1 |
| 20260508031607 | 51 | 268 | 4.0 | 16.0 | 0.01 | 0.01 | 0.01 | 79 | 1020.6 |
| 20260508030105 | 51 | 268 | 8.0 | 19.0 | 0.01 | 0.01 | 0.01 | 78 | 1020.7 |
| 20260508024555 | 50 | 251 | 7.0 | 20.0 | 0.01 | 0.01 | 0.01 | 79 | 1020.6 |
| 20260508023052 | 50 | 253 | 7.0 | 24.0 | 0.01 | 0.01 | 0.01 | 79 | 1020.4 |
| 20260508021551 | 49 | 259 | 9.0 | 18.0 | 0.00 | 0.00 | 0.00 | 79 | 1020.8 |
| 20260508020050 | 49 | 235 | 10.0 | 23.0 | 0.00 | 0.00 | 0.00 | 80 | 1020.7 |
| 20260508014545 | 49 | 263 | 10.0 | 24.0 | 0.00 | 0.00 | 0.00 | 80 | 1021.1 |
| 20260508013043 | 48 | 253 | 9.0 | 17.0 | 0.00 | 0.00 | 0.00 | 80 | 1021.6 |
| 20260508011545 | 48 | 240 | 9.0 | 23.0 | 0.00 | 0.00 | 0.00 | 80 | 1021.7 |
| 20260508010040 | 48 | 278 | 9.0 | 19.0 | 0.00 | 0.00 | 0.00 | 81 | 1021.8 |
| 20260508004540 | 47 | 245 | 9.0 | 21.0 | 0.00 | 0.00 | 0.00 | 82 | 1022.0 |
| 20260508003035 | 47 | 213 | 5.0 | 16.0 | 0.00 | 0.00 | 0.00 | 84 | 1021.9 |
| 20260508001534 | 45 | 255 | 4.0 | 15.0 | 0.00 | 0.00 | 0.00 | 85 | 1022.2 |
| 20260508000030 | 45 | 213 | 4.0 | 14.0 | 0.00 | 0.00 | 0.00 | 85 | 1022.3 |
| 20260507234533 | 45 | 322 | 6.0 | 17.0 | 0.00 | 0.00 | 0.00 | 85 | 1022.2 |
| 20260507233033 | 44 | 292 | 4.0 | 11.0 | 0.00 | 0.00 | 0.00 | 86 | 1022.2 |
| 20260507231523 | 44 | 284 | 5.0 | 11.0 | 0.00 | 0.00 | 0.00 | 87 | 1022.1 |
| 20260507224522 | 43 | 18 | 2.0 | 9.0 | 0.00 | 0.00 | 0.00 | 89 | 1022.0 |
| 20260507223017 | 42 | 349 | 5.0 | 14.0 | 0.00 | 0.00 | 0.00 | 89 | 1021.5 |
| 20260507221518 | 42 | 337 | 2.0 | 14.0 | 0.00 | 0.00 | 0.00 | 89 | 1021.6 |
| 20260507220014 | 42 | 301 | 5.0 | 15.0 | 0.00 | 0.00 | 0.00 | 89 | 1021.0 |